Terminal Aerodrome Forecast
Issued by NWS Wilmington, NC

Home | Current Version | Previous Version | Text Only | Print | Product List | Glossary On
Versions: 1 2 3 4 5 6 7 8 9 10 11 12 13 14
000
FTUS42 KILM 050845 AAA
TAFILM
TAF AMD
KILM 050845Z 0509/0606 18007KT 4SM -RA BR BKN025
     FM051200 30008KT 4SM -RA BR BKN007
     FM051500 33010KT P6SM VCSH SCT010 BKN025
     FM051800 33006KT P6SM BKN050
     FM060000 04005KT 6SM -RA BKN015=

USA.gov is the U.S. government's official web portal to all federal, state and local government web resources and services.